Location: Berbisdorf
(50.7638°N, 12.9442°E)
Time: 01:06:10
(UTC+00:00)

Daily predictions for brighter satellites

Satellite Brightness Start Highest point End
(mag) Time Altitude Azimuth Time Altitude Azimuth Time Altitude Azimuth
STARLINK-1337 3.6 00:00:05 10° WNW 00:03:10 54° N 00:06:15 10° E
STARLINK-1342 3.6 00:00:24 10° WNW 00:03:29 54° N 00:06:34 10° E
STARLINK-1364 3.6 00:00:44 10° WNW 00:03:49 54° N 00:06:54 10° E
STARLINK-1376 3.6 00:01:04 10° WNW 00:04:09 54° N 00:07:14 10° E
STARLINK-1360 3.6 00:01:25 10° WNW 00:04:30 54° N 00:07:35 10° E
STARLINK-1268 3.5 00:04:28 34° SSE 00:04:37 34° SSE 00:07:28 10° E
STARLINK-1361 3.6 00:01:46 10° WNW 00:04:51 54° N 00:07:55 10° E
STARLINK-1301 4.0 00:03:56 31° S 00:05:01 39° SSE 00:08:38 10° ENE
STARLINK-1367 3.6 00:02:01 10° WNW 00:05:08 55° N 00:08:15 10° E
STARLINK-1366 3.6 00:02:25 10° WNW 00:05:30 54° N 00:08:34 10° E
DELTA 2 DEB (DPAF) 4.5 00:02:34 17° SSE 00:05:58 64° ENE 00:10:25 10° N
Cosmos 1400 Rocket 3.2 00:02:13 10° N 00:06:22 64° ENE 00:09:10 19° SSE
STARLINK-1303 4.0 00:05:53 31° S 00:06:52 38° SSE 00:10:23 10° ENE
Cosmos 2227 Rocket 3.5 00:03:24 10° NW 00:07:51 24° WSW 00:10:10 19° SW
STARLINK-66 3.1 00:07:08 38° SSW 00:07:58 52° SSE 00:11:07 10° ENE
Cosmos 1570 Rocket 4.0 00:04:53 24° SSW 00:08:08 87° ESE 00:13:27 10° NNE
Cosmos 1709 Rocket 4.0 00:05:05 23° SSW 00:09:09 82° WNW 00:15:24 10° N
Cosmos 1763 Rocket 3.7 00:05:57 21° SW 00:09:19 61° WNW 00:14:22 10° NNE
STARLINK-1338 4.0 00:05:40 10° W 00:09:37 61° N 00:13:35 10° E
STARLINK-1316 3.4 00:09:23 36° SSE 00:09:45 38° SSE 00:12:41 10° E
STARLINK-1312 3.9 00:09:13 31° S 00:10:20 40° SSE 00:13:54 10° ENE
STARLINK-1257 3.4 00:10:14 36° S 00:10:39 38° SSE 00:13:35 10° ENE
STARLINK-1256 3.4 00:11:11 36° S 00:11:36 39° SSE 00:14:34 10° ENE
STARLINK-58 3.8 00:11:42 30° SSE 00:11:57 30° SE 00:14:48 10° E
STARLINK-1213 3.4 00:12:02 36° S 00:12:29 39° SSE 00:15:27 10° ENE
Cosmos 2084 Rocket 4.0 00:08:33 10° NW 00:12:46 42° SW 00:14:58 24° S
STARLINK-52 3.1 00:09:36 10° WNW 00:12:49 75° NNE 00:16:01 10° ESE
STARLINK-1263 3.4 00:12:53 37° S 00:13:23 40° SSE 00:16:20 10° ENE
STARLINK-1259 3.4 00:13:47 37° S 00:14:19 40° SSE 00:17:17 10° ENE
Cosmos 2227 4.3 00:08:39 10° NNW 00:14:27 81° ENE 00:20:13 10° SSE
STARLINK-1265 3.4 00:14:09 36° S 00:14:43 41° SSE 00:17:43 10° ENE
STARLINK-1285 3.3 00:14:37 37° S 00:15:11 41° SSE 00:18:09 10° ENE
Cosmos 2298 Rocket 4.0 00:10:04 10° NNW 00:15:24 86° WSW 00:19:50 15° SSE
SL-16 R/B 2.9 00:10:46 10° SSE 00:16:50 65° ENE 00:22:59 10° NNW
STARLINK-1296 3.3 00:16:22 37° S 00:16:59 42° SSE 00:19:59 10° ENE
STARLINK-1260 3.3 00:17:14 36° S 00:17:52 43° SSE 00:20:53 10° ENE
Cosmos 1758 Rocket 3.7 00:15:28 26° SSW 00:17:55 67° WNW 00:22:21 10° N
STARLINK-1371 4.0 00:14:03 10° W 00:17:59 61° N 00:21:55 10° E
STARLINK-1318 3.3 00:18:06 36° S 00:18:47 43° SSE 00:21:47 10° ENE
GEOS 3 Rocket 4.3 00:13:47 10° ESE 00:18:53 58° NE 00:24:07 10° NW
STARLINK-75 3.0 00:18:02 33° SW 00:19:11 56° SSE 00:22:23 10° ENE
STARLINK-1275 3.2 00:18:58 36° S 00:19:41 44° SSE 00:22:42 10° ENE
STARLINK-1309 3.2 00:19:50 36° SSW 00:20:35 45° SSE 00:23:34 10° ENE
STARLINK-1282 3.2 00:20:42 36° SSW 00:21:28 45° SSE 00:24:29 10° ENE
CZ-4 R/B 4.4 00:17:15 10° N 00:21:48 47° WNW 00:24:50 19° SW
IRAS Rocket 4.2 00:18:06 19° S 00:22:05 70° WSW 00:27:38 10° NNW
STARLINK-1283 3.8 00:20:03 26° SW 00:22:07 52° SSE 00:26:08 10° ENE
STARLINK-1341 4.0 00:18:25 10° W 00:22:22 62° N 00:26:20 10° E
STARLINK-1313 3.1 00:21:38 35° SSW 00:22:34 50° SSE 00:25:37 10° ENE
STARLINK-80 3.6 00:21:06 28° SSW 00:22:47 49° SSE 00:26:28 10° ENE
STARLINK-1279 3.0 00:22:33 35° SSW 00:23:30 51° SSE 00:26:33 10° ENE
STARLINK-1298 3.2 00:23:16 35° SSW 00:24:08 47° SSE 00:27:09 10° ENE
STARLINK-1293 3.1 00:24:09 35° SSW 00:25:03 48° SSE 00:28:06 10° ENE
STARLINK-1374 4.0 00:22:46 10° WNW 00:26:45 62° N 00:30:44 10° E
SL-16 R/B 3.5 00:22:44 14° SSE 00:26:48 30° ESE 00:31:40 10° NE
STARLINK-1255 3.1 00:25:54 34° SSW 00:26:52 49° SSE 00:29:54 10° ENE
Cosmos 2208 Rocket 4.1 00:23:37 22° SSW 00:27:09 80° WNW 00:32:34 10° NNE
STARLINK-22 3.1 00:26:15 32° SSW 00:27:27 53° SSE 00:30:36 10° ENE
STARLINK 1040 2.7 00:26:22 19° W 00:27:59 64° NNW 00:30:32 10° ENE
STARLINK-1297 3.5 00:26:32 28° SSW 00:28:03 49° SSE 00:31:34 10° ENE
STARLINK-1444 4.1 00:26:07 10° WNW 00:26:52 18° W 00:26:52 18° W
STARLINK-1452 4.3 00:26:46 10° WNW 00:27:17 15° W 00:27:17 15° W
STARLINK-1311 2.8 00:28:27 35° SW 00:29:25 57° SSE 00:32:19 10° ENE
CZ-2D R/B 2.8 00:25:56 10° NNE 00:30:57 46° E 00:35:02 15° SSE
STARLINK-1339 4.0 00:27:03 10° WNW 00:31:00 62° N 00:34:57 10° E
Cosmos-2242 3.6 00:28:09 10° NNW 00:32:11 42° W 00:34:23 23° SSW
Meteor 2-10 Rocket 4.5 00:28:01 10° NNW 00:32:33 32° W 00:35:16 19° SW
MOZ.5/SAFIR/RUBIN 5/SL-8 3.7 00:29:16 17° SSE 00:32:52 88° W 00:37:33 10° NNW
USA 215 3.7 00:28:06 10° SSE 00:34:01 38° SW 00:40:03 10° WNW
Cosmos 2221 3.3 00:30:48 10° N 00:35:04 50° ENE 00:39:20 10° SSE
STARLINK-1377 4.0 00:31:27 10° WNW 00:35:27 63° N 00:39:25 10° E
Cosmos 1953 Rocket 3.6 00:33:32 23° SSW 00:36:16 77° W 00:40:40 10° N
BREEZE-M R/B 2.7 00:32:28 10° W 00:38:02 78° S 00:41:04 10° E
STARLINK-42 2.7 00:36:26 24° WSW 00:38:10 75° SSE 00:41:17 10° ENE
STARLINK-1353 4.0 00:35:48 10° WNW 00:39:47 64° N 00:43:47 10° E
GP-B 3.1 00:35:23 10° N 00:39:52 89° WNW 00:42:59 19° S
STARLINK-1029 3.6 00:39:05 29° S 00:40:04 38° SSE 00:43:02 10° E
STARLINK-60 3.1 00:37:41 10° WNW 00:40:45 46° SSW 00:43:49 10° SE
STARLINK-34 3.1 00:40:02 30° SSW 00:41:09 47° SSE 00:44:08 10° ENE
FALCON 9 DEB 3.2 00:37:46 10° WNW 00:41:13 79° NNE 00:44:41 10° ESE
STARLINK-41 2.7 00:40:11 23° WSW 00:41:53 76° SSE 00:44:57 10° ENE
Cosmos 1315 Rocket 3.3 00:38:02 10° N 00:41:56 57° ENE 00:45:45 10° SSE
CZ-4C R/B 3.6 00:38:34 16° SSE 00:42:02 84° WSW 00:46:31 10° NNW
Cosmos 1842 Rocket 3.8 00:37:34 10° N 00:42:03 71° ENE 00:46:05 12° SSE
STARLINK-1272 3.2 00:42:02 23° SW 00:44:05 62° SSE 00:47:36 10° ENE
STARLINK-1375 4.0 00:40:10 10° WNW 00:44:10 65° N 00:48:10 10° E
Cosmos 540 Rocket 3.8 00:41:07 18° SW 00:44:49 60° WNW 00:49:55 10° NNE
STARLINK-62 3.1 00:43:45 28° SSW 00:45:00 50° SSE 00:47:59 10° ENE
Helios 1B rocket 3.9 00:44:01 10° N 00:47:31 27° WNW 00:50:24 13° WSW
STARLINK-1350 4.0 00:44:31 10° WNW 00:48:31 66° N 00:52:30 10° E
Cosmos 2360 Rocket 4.1 00:45:09 10° SSE 00:49:13 21° E 00:53:18 10° NE
STARLINK-1307 3.3 00:46:48 20° SW 00:49:14 65° SSE 00:52:56 10° ENE
STARLINK-1290 3.3 00:50:11 19° SW 00:52:45 68° SSE 00:56:28 10° ENE
STARLINK-1352 3.9 00:48:46 10° WNW 00:52:46 67° N 00:56:45 10° E
Cosmos 2058 4.2 00:50:50 10° SSE 00:54:41 35° E 00:58:33 10° NNE
IKONOS-2 4.5 00:51:36 14° S 00:55:12 78° WSW 00:59:31 10° NNW
Cosmos 1980 Rocket 2.5 00:51:50 16° SW 00:56:19 63° NW 01:01:58 10° NNE
Cosmos 2074 Rocket 4.0 00:51:22 16° S 00:56:31 87° W 01:02:50 10° N
STARLINK-1368 3.9 00:53:21 10° WNW 00:57:22 68° N 01:01:23 10° E
Cosmos 1455 4.3 00:56:31 10° NW 00:58:35 14° W 01:00:05 12° WSW
STARLINK-1317 3.4 00:56:33 15° WSW 00:59:43 77° SSE 01:03:39 10° ENE
CZ-4B R/B 4.0 00:54:40 10° NNE 00:59:52 58° ESE 01:04:34 13° S
STARLINK-1369 3.9 00:57:47 10° WNW 01:01:49 69° NNE 01:05:50 10° E
STARLINK-55 3.0 01:00:33 11° WSW 01:03:34 77° NNW 01:06:47 10° ENE
STARLINK-1274 3.1 01:00:55 15° WSW 01:03:44 79° SSE 01:07:17 10° ENE
STARLINK-43 3.7 01:01:19 10° W 01:04:59 65° N 01:08:40 10° ENE
STARLINK-1372 3.8 01:02:02 10° WNW 01:06:03 71° NNE 01:10:03 10° E
STARLINK-1291 3.3 01:04:15 14° WSW 01:07:26 82° SSE 01:11:11 10° ENE
Meteor 1-11 4.5 01:03:54 16° SSW 01:08:16 59° WNW 01:13:48 10° N
ADEOS II 3.1 01:04:03 10° NNE 01:09:00 40° E 01:13:57 10° SSE
STARLINK-1300 4.5 01:06:39 18° SSW 01:09:10 35° SE 01:12:57 10° ENE
Cosmos 2263 Rocket 2.5 01:05:01 10° NW 01:10:24 48° WSW 01:15:43 10° S
STARLINK-1378 3.8 01:06:40 10° WNW 01:10:41 73° NNE 01:14:43 10° E
STARLINK-1264 3.3 01:07:26 13° WSW 01:10:45 84° SSE 01:14:30 10° ENE
IRS-1D 4.2 01:07:10 10° NNE 01:12:21 53° E 01:17:24 10° S
STARLINK-29 3.1 01:10:27 10° WNW 01:13:33 48° SSW 01:16:38 10° SE
STARLINK-1295 4.4 01:11:25 17° SSW 01:14:06 37° SE 01:17:56 10° ENE
STARLINK-1267 3.3 01:10:39 12° WSW 01:14:07 87° SSE 01:17:52 10° ENE
AQUA 4.0 01:09:20 10° NNE 01:14:07 74° ESE 01:18:24 13° S
NOSS 2-1 (C) 3.3 01:12:04 18° SSW 01:14:21 54° SE 01:17:58 10° NE
SL-4 R/B 2.8 01:10:34 10° W 01:15:03 39° SW 01:19:24 10° SE
STARLINK-28 3.2 01:11:55 10° W 01:15:07 68° NNW 01:18:20 10° ENE
STARLINK-1379 3.8 01:11:09 10° WNW 01:15:11 75° NNE 01:19:14 10° E
UNK 4.1 01:11:40 14° S 01:15:22 48° W 01:19:49 10° NNW
USA 229 DEB 4.0 01:09:19 10° NW 01:16:21 54° WSW 01:23:42 10° SSE
USA 229 4.0 01:09:26 10° NW 01:16:28 54° WSW 01:23:49 10° SSE
STARLINK-64 3.5 01:14:12 17° SW 01:16:42 52° SSE 01:20:12 10° ENE
NOSS 3-1 (C) 4.3 01:10:01 10° NW 01:17:13 52° WSW 01:25:26 10° SSE
NPP 3.7 01:12:36 10° NNE 01:18:03 88° WNW 01:22:54 13° SSW
ARIANE 5 R/B 4.0 01:14:17 10° NNE 01:18:42 30° E 01:23:03 10° SSE
STARLINK-1329 3.7 01:14:57 10° WNW 01:19:00 76° NNE 01:23:02 10° E
STARLINK-1287 4.3 01:16:12 16° SSW 01:19:03 39° SE 01:22:56 10° ENE
NOSS 2-1 (D) 3.2 01:16:50 17° SSW 01:19:15 61° SE 01:22:55 10° NE
STARLINK-1207 3.3 01:17:09 10° WSW 01:20:53 88° NNW 01:24:39 10° ENE
Cosmos 2184 Rocket 4.2 01:16:26 14° SSW 01:21:43 62° WNW 01:27:51 10° N
ERS-2 4.1 01:19:49 10° SE 01:23:04 30° ENE 01:26:19 10° N
STARLINK-1362 3.7 01:19:29 10° WNW 01:23:33 79° NNE 01:27:35 10° ESE
CZ-4C R/B 3.6 01:18:42 10° W 01:23:48 37° NNW 01:29:53 10° NE
STARLINK-1266 3.3 01:20:32 10° WSW 01:24:17 86° NNW 01:28:03 10° ENE
BREEZE-M DEB (TANK) 2.1 01:23:14 19° SW 01:24:26 45° SSE 01:27:33 10° E
STARLINK-33 3.2 01:22:13 10° W 01:25:19 66° NNW 01:28:26 10° ENE
Cosmos 1892 2.9 01:21:53 11° S 01:25:25 67° E 01:29:11 10° NNE
NOSS 3-1 (A) 4.1 01:18:07 10° NW 01:25:28 65° SW 01:33:56 10° SSE
STARLINK-1299 4.0 01:24:05 15° SW 01:27:28 50° SSE 01:31:37 10° ENE
STARLINK-1284 3.4 01:23:56 10° WSW 01:27:41 84° NNW 01:31:28 10° ENE
STARLINK-1373 3.7 01:24:01 10° WNW 01:28:04 81° NNE 01:32:06 10° ESE
STARLINK-1320 2.8 01:25:07 10° WNW 01:28:15 86° SSW 01:31:22 10° ESE
STARLINK-1322 2.8 01:25:28 10° WNW 01:28:36 86° SSW 01:31:44 10° ESE
BREEZE-M DEB (TANK) 1.0 01:26:26 10° W 01:28:46 59° S 01:31:26 10° ESE
STARLINK-26 3.5 01:25:23 10° W 01:28:48 66° NNW 01:32:14 10° ENE
STARLINK-1324 2.8 01:25:47 10° WNW 01:28:55 86° SSW 01:32:03 10° ESE
STARLINK-1302 4.1 01:25:46 15° SW 01:28:57 45° SSE 01:32:55 10° ENE
STARLINK-1294 2.8 01:26:05 10° WNW 01:29:14 85° SSW 01:32:23 10° ESE
Cosmos 1869 3.5 01:25:49 10° NNW 01:29:34 49° W 01:33:01 12° SSW
STARLINK-1261 2.8 01:26:29 10° WNW 01:29:36 85° SSW 01:32:44 10° ESE
STARLINK-1325 2.8 01:26:50 10° WNW 01:29:58 85° SSW 01:33:05 10° ESE
STARLINK-1333 2.8 01:27:12 10° WNW 01:30:20 84° SSW 01:33:27 10° ESE
STARLINK-1334 2.8 01:27:29 10° WNW 01:30:37 84° SSW 01:33:44 10° ESE
STARLINK-1326 2.8 01:27:48 10° WNW 01:30:56 84° SSW 01:34:03 10° ESE
STARLINK-1258 3.4 01:27:23 10° WSW 01:31:08 82° NNW 01:34:54 10° ENE
STARLINK-1323 2.8 01:28:12 10° WNW 01:31:19 84° SSW 01:34:26 10° ESE
STARLINK-1349 2.8 01:28:29 10° WNW 01:31:37 83° SSW 01:34:44 10° ESE
STARLINK-1336 2.8 01:28:48 10° WNW 01:31:56 83° SSW 01:35:04 10° ESE
STARLINK-1331 2.8 01:29:11 10° WNW 01:32:19 83° SSW 01:35:27 10° ESE
STARLINK-1344 2.8 01:29:29 10° WNW 01:32:38 82° SSW 01:35:45 10° ESE
STARLINK-1390 3.6 01:28:36 10° WNW 01:32:40 83° NNE 01:36:44 10° ESE
STARLINK-1343 2.8 01:29:52 10° WNW 01:33:00 82° SSW 01:36:07 10° ESE
STARLINK-1346 2.8 01:30:08 10° WNW 01:33:18 82° SSW 01:36:27 10° ESE
STARLINK-1328 2.8 01:30:35 10° WNW 01:33:43 81° SSW 01:36:50 10° ESE
STARLINK-1273 4.0 01:30:32 14° SW 01:33:54 48° SSE 01:37:55 10° ENE
STARLINK-1354 2.7 01:30:53 10° WNW 01:34:01 81° SSW 01:37:08 10° ESE
STARLINK-1347 2.7 01:31:10 10° WNW 01:34:17 81° SSW 01:37:24 10° ESE
STARLINK-1292 3.4 01:30:49 10° WSW 01:34:34 80° NNW 01:38:20 10° ENE
STARLINK-1357 2.7 01:31:36 10° WNW 01:34:44 80° SSW 01:37:51 10° ESE
Cosmos 2322 Rocket 2.3 01:29:42 12° SSW 01:34:54 76° ESE 01:40:33 10° NNE
STARLINK-1335 2.7 01:31:52 10° WNW 01:35:00 80° SSW 01:38:08 10° ESE
STARLINK-1327 2.7 01:32:14 10° WNW 01:35:22 80° SSW 01:38:29 10° ESE
STARLINK-1340 2.7 01:32:32 10° WNW 01:35:39 80° SSW 01:38:47 10° ESE
STARLINK-1356 2.7 01:32:55 10° WNW 01:36:03 79° SSW 01:39:09 10° ESE
STARLINK-1345 2.7 01:33:14 10° WNW 01:36:21 79° SSW 01:39:28 10° ESE
In-Cosmos 22 Rocket 4.2 01:31:03 10° S 01:36:39 89° E 01:42:08 10° NNE
STARLINK-1355 2.7 01:33:35 10° WNW 01:36:42 78° SSW 01:39:49 10° ESE
STARLINK-1321 2.7 01:33:56 10° WNW 01:37:03 78° SSW 01:40:10 10° ESE
STARLINK-1358 2.7 01:34:19 10° WNW 01:37:27 78° SSW 01:40:34 10° ESE
STARLINK-1332 2.7 01:34:36 10° WNW 01:37:44 78° SSW 01:40:50 10° ESE
STARLINK-1348 2.7 01:34:56 10° WNW 01:38:04 77° SSW 01:41:11 10° ESE
STARLINK-1330 2.7 01:35:16 10° WNW 01:38:23 77° SSW 01:41:31 10° ESE
STARLINK-1365 3.6 01:34:34 10° WNW 01:38:40 88° NNE 01:42:46 10° ESE
STARLINK-1363 2.7 01:35:36 10° WNW 01:38:43 77° SSW 01:41:50 10° ESE
STARLINK-1288 4.0 01:35:19 13° SW 01:38:52 51° SSE 01:42:54 10° ENE
STARLINK-61 4.2 01:35:51 13° SSW 01:38:59 40° SSE 01:42:42 10° ENE
STARLINK-1337 2.7 01:35:58 10° WNW 01:39:06 76° SSW 01:42:13 10° ESE
STARLINK-1342 2.7 01:36:17 10° WNW 01:39:25 76° SSW 01:42:32 10° ESE
STARLINK-1364 2.7 01:36:38 10° WNW 01:39:45 76° SSW 01:42:52 10° ESE
Resurs 1-4 Rocket 2.5 01:34:45 10° N 01:39:55 52° WNW 01:44:54 11° SW
STARLINK-1376 2.7 01:36:58 10° WNW 01:40:05 75° SSW 01:43:12 10° ESE
STARLINK-1268 3.1 01:37:08 10° W 01:40:13 68° NNW 01:43:18 10° ENE
STARLINK-1360 2.7 01:37:18 10° WNW 01:40:26 75° SSW 01:43:34 10° ESE
STARLINK-1361 2.7 01:37:39 10° WNW 01:40:46 75° SSW 01:43:54 10° ESE
STARLINK-1367 2.8 01:37:55 10° WNW 01:41:04 74° SSW 01:44:13 10° ESE
STARLINK-1366 2.7 01:38:18 10° WNW 01:41:26 74° SSW 01:44:33 10° ESE
STARLINK-1289 3.5 01:37:40 10° W 01:41:26 76° NNW 01:45:12 10° ENE
Cosmos 1697 Rocket 4.5 01:38:31 10° W 01:43:02 24° NW 01:47:33 10° NNE
STARLINK-1301 3.6 01:39:34 10° W 01:43:25 74° NNW 01:47:17 10° ENE
STARLINK-1308 3.9 01:40:08 12° SW 01:43:52 55° SSE 01:47:56 10° ENE
STARLINK-66 3.5 01:40:55 10° W 01:44:07 59° N 01:47:18 10° ENE
Cosmos 1125 Rocket 4.4 01:39:41 10° NW 01:44:09 29° W 01:48:36 10° SSW
Cosmos 1076 Rocket 3.6 01:39:51 10° SSW 01:44:13 79° WNW 01:48:37 10° N
STARLINK-1303 3.5 01:41:10 10° W 01:44:55 74° NNW 01:48:42 10° ENE
STARLINK-1316 3.2 01:42:23 10° W 01:45:29 66° NNW 01:48:37 10° ENE
Cosmos 2151 3.8 01:41:52 10° SSE 01:45:59 49° E 01:50:10 10° NNE
STARLINK-1257 3.2 01:43:15 10° W 01:46:23 66° NNW 01:49:30 10° ENE
COBE Rocket 4.2 01:41:29 10° SSE 01:46:34 77° ENE 01:51:46 10° N
STARLINK-1256 3.2 01:44:15 10° W 01:47:21 65° NNW 01:50:28 10° ENE
STARLINK-58 3.1 01:44:37 10° WSW 01:47:47 75° NNW 01:50:58 10° ENE
H-2A R/B 3.2 01:43:33 10° SE 01:47:52 50° ENE 01:52:14 10° N
STARLINK-1213 3.2 01:45:08 10° W 01:48:14 65° NNW 01:51:20 10° ENE
STARLINK-1312 3.6 01:44:39 10° W 01:48:25 73° NNW 01:52:12 10° ENE
STARLINK-52 3.7 01:45:53 10° W 01:48:46 31° SW 01:51:38 10° SSE
STARLINK-1338 3.5 01:44:47 10° WNW 01:48:47 86° SSW 01:52:47 10° ESE
STARLINK-1263 3.3 01:46:01 10° W 01:49:08 64° N 01:52:14 10° ENE
STARLINK-1259 3.3 01:46:57 10° W 01:50:04 64° NNW 01:53:11 10° ENE
STARLINK-1265 3.3 01:47:20 10° W 01:50:28 64° N 01:53:37 10° ENE
STARLINK-1285 3.3 01:47:50 10° W 01:50:57 63° N 01:54:03 10° ENE
STARLINK-1296 3.3 01:49:39 10° W 01:52:45 63° N 01:55:52 10° ENE
Cosmos 1408 2.6 01:49:57 10° S 01:53:38 86° E 01:57:19 10° N
STARLINK-1260 3.3 01:50:33 10° W 01:53:39 62° N 01:56:47 10° ENE
STARLINK-1304 3.8 01:49:42 10° SW 01:53:47 61° SSE 01:57:53 10° ENE
STARLINK-1318 3.3 01:51:28 10° W 01:54:34 62° N 01:57:41 10° ENE
STARLINK-75 3.5 01:52:08 10° W 01:55:21 58° N 01:58:33 10° ENE
STARLINK-1275 3.3 01:52:22 10° W 01:55:29 62° N 01:58:36 10° ENE
Cosmos 2154 Rocket 4.3 01:50:00 10° SSW 01:56:06 54° WNW 02:02:13 10° N
STARLINK-1309 3.3 01:53:15 10° W 01:56:22 61° N 01:59:28 10° ENE
STARLINK-1371 3.4 01:53:03 10° WNW 01:57:02 80° SSW 02:00:59 10° ESE
GEOS 3 Rocket 4.1 01:52:18 10° S 01:57:06 38° WSW 02:02:01 10° NW
STARLINK-1282 3.4 01:54:10 10° W 01:57:16 61° N 02:00:22 10° ENE
STARLINK-1313 3.4 01:55:17 10° W 01:58:23 59° N 02:01:30 10° ENE
STARLINK-48 3.5 01:54:32 10° WSW 01:58:26 88° NNW 02:02:21 10° ENE
STARLINK-1279 3.4 01:56:14 10° W 01:59:19 59° N 02:02:25 10° ENE
STARLINK-1298 3.4 01:56:50 10° W 01:59:57 60° N 02:03:02 10° ENE
STARLINK-1278 3.7 01:55:42 10° WSW 01:59:57 72° SSE 02:04:12 10° ENE
Cosmos 1825 2.4 01:56:29 10° S 02:00:13 69° E 02:03:59 10° NNE
Cosmos 2237 4.5 01:55:06 10° SSW 02:00:46 69° ESE 02:06:29 10° NNE
STARLINK-1293 3.4 01:57:46 10° W 02:00:52 60° N 02:03:58 10° ENE
SL-16 R/B 3.6 01:55:49 10° SSW 02:00:55 27° W 02:06:05 10° NW
STARLINK-80 3.7 01:57:12 10° W 02:01:00 67° N 02:04:48 10° ENE
STARLINK-1341 3.4 01:57:26 10° WNW 02:01:26 77° SSW 02:05:23 10° ESE
STARLINK-1283 3.9 01:57:30 10° W 02:01:37 69° N 02:05:45 10° ENE
STARLINK-1280 3.7 01:57:32 10° WSW 02:01:47 73° SSE 02:06:03 10° ENE
STARLINK 1040 3.3 01:59:36 10° WNW 02:02:06 50° N 02:04:37 10° E
SL-08 R/B 3.3 01:57:48 10° S 02:02:24 66° WSW 02:07:00 10° NNW
STARLINK-1255 3.4 01:59:35 10° W 02:02:41 59° N 02:05:48 10° ENE
IRS-P3 4.2 01:58:05 10° NNE 02:03:27 86° WNW 02:08:47 10° SSW
STARLINK-22 3.5 02:00:24 10° W 02:03:35 59° N 02:06:46 10° ENE
STARLINK-1311 3.4 02:01:48 10° W 02:04:43 55° N 02:07:38 10° ENE
Cosmos 1844 Rocket 2.7 01:59:26 10° NNW 02:05:03 76° WSW 02:10:37 10° SSE
STARLINK-1297 3.6 02:02:03 10° W 02:05:39 65° N 02:09:16 10° ENE
STARLINK-1374 3.5 02:01:55 10° WNW 02:05:54 74° SSW 02:09:54 10° ESE
STARLINK-45 4.5 02:02:51 10° SSW 02:06:05 30° SE 02:09:19 10° E
NOSS 2-1 (E) 3.5 02:05:22 10° WSW 02:08:43 56° NW 02:12:36 10° NE
STARLINK-70 4.4 02:06:21 10° SSW 02:09:38 32° SE 02:12:56 10° E
STARLINK-1339 3.4 02:06:05 10° WNW 02:10:02 70° SSW 02:13:59 10° ESE
STARLINK-1286 3.7 02:06:15 10° WSW 02:10:25 75° SSE 02:14:35 10° ENE
SL-16 R/B 2.6 02:05:03 10° SW 02:10:37 56° NW 02:16:14 10° NNE
STARLINK-23 4.5 02:07:35 10° SSW 02:10:49 31° SE 02:14:03 10° E
CZ-2D R/B 3.2 02:06:18 10° N 02:10:53 32° WNW 02:15:26 10° WSW
STARLINK-32 4.4 02:09:04 10° SSW 02:12:15 31° SE 02:15:28 10° E
Cosmos 2221 4.1 02:09:07 10° NW 02:12:17 20° W 02:15:26 10° SW
STARLINK-1281 3.7 02:09:31 10° WSW 02:13:39 75° SSE 02:17:48 10° ENE
STARLINK-40 4.4 02:10:47 10° SSW 02:14:03 32° SE 02:17:19 10° E
STARLINK-42 3.6 02:10:59 10° W 02:14:03 54° N 02:17:08 10° ENE
STARLINK-1377 3.5 02:10:37 10° WNW 02:14:36 67° SSW 02:18:34 10° ESE
COSMOS 2428 4.3 02:10:20 10° SSE 02:15:15 31° ESE 02:20:12 10° NE
Cosmos 773 Rocket 4.2 02:12:11 10° SSW 02:17:27 81° ESE 02:22:46 10° NNE
